Wind_Speed
47 47 45 42 41 41 39 39 39 38 38 36 36 36 35 34 31 30 30 32 33 36 36 36 35 34 31 27 27 30 33 36 36 35 35 29 25 25 26 27 30 30 33 37 41
53 52 50 49 48 44 43 42 42 41 40 40 40 38 36 36 35 34 34 34 36 38 38 36 34 32 31 29 31 32 35 39 40 38 36 30 26 26 26 27 28 30 32 36 40
54 58 58 56 54 53 51 49 45 45 44 42 43 43 41 40 38 38 38 37 39 40 39 39 38 31 30 30 32 35 36 41 42 41 38 34 28 28 28 26 27 30 32 35 37
57 57 58 60 60 58 57 57 56 53 50 49 47 45 45 46 43 42 43 42 42 42 42 43 39 33 34 35 35 37 39 41 43 44 40 36 31 28 28 28 28 29 31 35 37
64 63 62 63 64 62 62 62 61 60 59 57 54 51 51 50 48 47 47 46 45 44 43 43 39 37 37 37 37 37 39 40 43 44 44 40 33 28 28 30 29 29 30 33 34
71 70 70 69 69 67 66 66 67 66 64 62 62 59 55 54 53 53 52 51 51 49 45 45 43 40 41 39 39 38 39 42 42 45 44 43 38 33 28 31 30 30 32 31 34
76 75 74 75 74 74 74 72 71 70 68 68 67 65 63 62 59 56 56 54 53 51 50 48 47 43 42 42 41 40 43 42 41 43 43 43 40 39 32 30 31 31 33 34 33
79 80 81 80 79 78 77 76 77 76 76 74 72 70 68 65 62 60 59 56 54 52 50 49 48 45 43 43 43 42 44 43 40 40 40 40 41 39 35 32 32 32 34 35 34
87 85 84 83 83 83 81 80 81 80 80 79 79 76 74 72 69 66 63 62 59 57 54 53 50 48 46 47 47 45 45 43 41 34 38 38 40 40 39 35 31 33 36 37 36
94 95 95 95 94 92 90 89 87 85 83 82 80 80 78 76 71 71 67 67 64 60 58 57 56 53 52 49 47 46 44 43 40 37 36 38 40 42 42 41 38 36 37 40 37
91 93 94 100 101 101 99 98 97 95 89 86 85 81 79 75 73 74 71 67 67 63 61 59 55 56 56 52 49 47 47 43 38 38 35 38 40 42 43 45 44 42 38 41 41
58 70 83 90 101 105 106 108 105 103 98 96 94 87 85 80 77 74 72 70 68 66 65 61 59 59 55 53 51 50 48 43 40 37 36 38 40 42 43 45 48 47 46 47 47
54 58 67 73 76 84 95 103 112 111 107 104 100 95 92 88 82 77 72 71 69 68 66 64 63 61 57 55 51 50 46 43 41 38 36 39 41 42 45 47 50 49 49 52 52
46 49 52 56 69 77 82 83 98 110 113 107 109 102 102 92 87 83 78 75 73 69 67 66 66 64 59 54 51 48 45 39 41 39 40 41 46 45 47 51 50 52 54 55 53
45 51 53 60 62 63 70 79 82 90 102 108 112 112 105 102 92 92 85 82 77 74 70 66 65 64 58 55 52 48 46 44 47 46 43 46 50 55 50 52 55 55 56 57 53
45 50 50 56 58 59 63 66 76 83 89 101 113 109 109 102 99 95 93 88 82 84 77 69 66 64 61 60 58 56 51 49 50 50 50 53 51 55 62 56 57 57 60 59 54
49 52 52 54 58 62 64 64 65 76 82 96 104 110 111 110 105 101 96 95 90 88 82 77 73 69 69 65 62 59 58 56 55 56 57 60 55 55 60 61 59 61 62 61 57
51 53 56 59 60 63 57 59 54 61 76 88 100 106 110 111 110 106 101 98 92 92 89 84 79 76 72 71 70 66 64 62 60 61 61 63 60 60 59 61 61 63 60 59 57
56 57 57 56 58 59 56 52 51 59 70 82 90 95 104 111 112 109 107 99 96 96 93 91 85 85 81 76 73 69 67 66 65 64 64 68 68 63 63 65 64 60 57 59 58
59 62 65 56 58 57 54 49 50 56 60 65 75 85 93 106 111 112 109 105 99 98 96 91 90 89 86 81 78 74 73 72 69 68 69 69 68 73 68 64 61 59 56 58 59
66 70 67 58 57 57 51 47 47 48 52 61 69 78 84 92 108 108 109 107 105 100 96 93 94 92 96 84 85 80 79 74 75 71 72 71 72 76 72 65 60 57 58 59 59
71 71 67 59 55 55 48 42 41 43 49 53 61 66 74 83 86 98 104 108 104 102 97 94 95 94 98 86 88 85 81 80 80 77 76 74 70 77 72 63 59 58 58 60 58
73 72 67 59 54 52 43 37 37 40 41 45 53 58 66 71 75 82 89 102 99 101 101 99 95 92 90 87 85 83 85 83 81 77 74 70 67 76 72 67 65 61 59 55 54
76 72 64 60 53 47 38 33 33 34 34 39 45 51 56 61 66 71 75 80 81 98 96 97 96 94 91 88 90 84 85 81 78 75 73 70 71 73 73 73 67 63 58 53 53
74 69 62 60 51 43 35 29 30 30 31 33 38 44 51 56 60 64 66 70 71 76 83 92 95 93 89 89 91 83 83 83 82 78 75 73 74 56 59 62 66 62 54 52 51
72 65 61 56 46 37 32 27 26 27 31 34 36 42 48 51 55 60 63 63 63 65 66 71 79 88 87 90 87 85 86 83 81 77 72 70 71 64 73 74 64 55 54 52 52
70 63 59 51 41 32 28 25 23 21 27 30 34 39 43 49 51 54 60 60 62 56 58 57 60 60 67 75 77 81 82 82 78 75 72 72 76 66 65 65 61 54 53 53 53
Wind_Direction
235 236 239 242 243 245 245 250 253 256 259 262 266 270 273 276 279 284 290 293 297 300 304 308 313 319 321 320 325 331 330 335 347 354 355 358 1 6 9 13 16 12 14 14 20
238 240 242 243 244 245 249 252 253 255 258 261 264 266 271 272 275 281 286 290 291 295 300 301 307 314 318 319 325 327 327 329 336 345 350 354 357 360 5 7 9 8 13 14 18
239 240 241 244 244 246 247 247 250 254 256 256 261 265 267 272 274 276 281 284 286 289 294 298 302 306 311 316 321 323 323 325 329 337 341 346 349 353 357 2 8 5 8 13 15
236 238 241 242 244 246 248 250 251 250 255 259 260 263 266 268 269 273 276 280 284 287 291 294 296 299 302 308 313 317 319 322 325 331 334 338 344 352 351 352 357 358 3 8 12
242 244 245 244 243 244 246 249 251 253 254 255 257 260 261 265 267 270 273 276 280 283 287 288 288 294 297 302 307 313 315 318 321 325 327 329 336 343 349 346 353 354 359 6 9
244 246 246 246 248 248 248 249 250 251 253 255 256 258 261 262 265 268 269 272 274 278 280 282 284 287 291 297 303 308 310 314 316 319 321 322 327 333 342 342 346 348 348 359 6
245 247 249 248 249 249 250 250 251 251 252 254 256 257 259 260 261 265 268 270 271 272 276 279 282 285 289 294 297 303 304 308 312 314 315 317 322 327 336 339 341 342 340 350 5
253 252 252 253 254 254 255 254 253 252 252 254 254 257 257 258 260 260 263 265 268 271 273 276 279 281 285 290 294 296 299 303 307 307 308 311 315 318 324 333 334 336 335 344 357
257 256 254 255 257 258 256 256 256 255 253 253 254 255 256 257 257 259 260 262 263 266 269 272 275 277 279 284 289 292 295 298 300 301 300 304 308 313 318 324 330 333 332 337 347
259 258 259 259 257 257 257 258 256 255 254 254 253 254 255 255 256 256 257 258 259 260 262 265 269 271 274 278 282 286 287 292 294 296 295 300 303 310 314 319 326 329 330 330 339
259 258 260 261 260 258 257 257 257 256 255 254 254 255 253 253 254 255 254 254 257 257 258 261 263 266 270 275 278 281 285 287 288 292 292 296 300 307 310 316 321 325 326 325 331
262 261 259 261 258 256 257 257 256 255 256 256 254 250 253 251 252 253 254 252 253 255 257 258 259 262 266 271 274 276 278 281 283 286 288 292 297 301 306 312 315 320 323 323 327
268 266 258 263 265 262 255 257 255 255 253 253 254 253 250 249 248 249 251 252 250 252 255 256 259 261 263 264 268 271 272 274 276 282 283 287 292 297 302 307 309 315 317 318 323
274 272 270 268 265 263 264 259 254 252 251 249 251 251 251 249 245 246 246 249 251 249 250 253 256 258 261 261 263 265 264 268 269 277 279 284 289 291 295 298 307 310 312 314 320
288 282 274 274 272 270 261 262 258 253 250 247 246 247 248 247 243 243 243 245 249 249 248 249 251 256 257 259 259 258 260 262 269 273 277 281 286 291 293 297 303 307 309 313 316
298 295 287 284 283 280 273 265 259 255 251 245 243 244 243 244 243 240 241 242 243 248 248 247 250 253 255 255 256 258 261 264 266 271 276 277 283 289 294 299 300 305 308 310 313
298 299 297 293 289 287 284 277 270 256 248 243 241 237 239 240 240 240 239 239 240 245 248 248 248 248 251 252 255 257 260 263 267 271 275 278 282 284 291 296 300 303 307 308 312
302 303 306 296 294 292 292 285 273 253 246 241 239 237 235 237 238 239 239 238 239 242 245 247 247 250 249 250 252 257 259 262 266 269 273 276 278 284 288 292 296 301 304 306 309
310 312 308 305 301 297 298 286 266 254 243 241 239 237 234 234 237 238 239 239 238 240 242 246 247 248 249 251 253 255 259 261 263 267 270 276 279 280 286 290 293 299 301 302 306
317 319 316 311 306 304 299 280 267 255 250 243 238 235 234 231 235 237 238 239 237 239 241 241 245 248 251 251 253 256 256 258 262 265 269 273 278 284 284 287 290 296 297 298 303
321 320 319 314 309 306 299 283 269 260 249 240 236 233 233 232 232 234 237 237 238 238 240 241 243 246 250 251 253 255 258 260 262 266 269 271 277 279 283 283 288 289 293 296 298
321 322 320 313 309 307 299 284 270 257 248 243 240 235 233 234 234 233 235 238 237 239 240 241 244 244 250 249 251 253 256 259 264 266 266 270 275 278 278 283 286 287 289 293 293
320 321 318 314 310 307 300 280 264 257 250 243 238 235 233 233 231 232 234 238 239 239 239 240 243 246 249 250 250 255 257 258 261 262 267 270 273 272 281 283 283 285 288 289 287
318 320 318 315 311 307 297 275 259 255 248 240 235 234 232 231 231 234 237 237 239 240 240 241 242 244 247 249 251 250 255 258 260 262 266 268 267 272 281 280 281 283 284 283 282
317 319 319 316 312 304 293 272 257 250 244 239 235 232 230 229 229 231 234 236 237 240 241 241 242 244 246 249 252 253 255 258 259 262 264 267 269 280 272 274 278 283 280 278 278
315 317 318 316 310 298 284 269 255 242 237 238 236 233 229 228 228 230 230 232 233 235 237 240 243 243 245 248 252 254 255 256 259 260 263 265 265 266 262 272 276 275 274 274 274
313 316 318 317 307 294 276 263 250 237 237 235 232 233 231 227 227 228 231 233 235 236 238 240 242 245 246 249 252 255 255 255 258 260 260 260 264 264 264 266 270 271 269 270 273
Height
11015 11017 11020 11023 11023 11024 11025 11026 11027 11027 11029 11030 11031 11031 11032 11033 11032 11032 11033 11032 11032 11031 11030 11029 11028 11026 11025 11024 11023 11021 11018 11015 11014 11012 11010 11007 11003 11000 10997 10993 10989 10985 10980 10975 10969
11009 11011 11014 11017 11019 11020 11020 11021 11023 11024 11024 11025 11026 11027 11027 11028 11029 11029 11029 11029 11029 11028 11027 11028 11027 11026 11022 11021 11020 11019 11016 11013 11012 11011 11009 11007 11003 10999 10996 10994 10990 10986 10982 10977 10972
11000 11003 11006 11008 11010 11013 11015 11016 11016 11017 11018 11020 11021 11022 11023 11023 11024 11025 11025 11025 11026 11026 11025 11024 11024 11024 11021 11020 11017 11015 11014 11010 11009 11009 11007 11005 11002 10998 10995 10993 10990 10985 10982 10977 10972
10991 10993 10996 10998 11001 11003 11005 11007 11010 11011 11011 11012 11015 11016 11016 11017 11019 11020 11020 11021 11021 11021 11020 11020 11020 11019 11018 11017 11016 11013 11009 11008 11006 11005 11004 11002 11000 10998 10994 10991 10988 10983 10980 10976 10972
10982 10984 10987 10989 10991 10993 10995 10997 10999 11001 11004 11005 11007 11009 11011 11011 11012 11013 11014 11015 11015 11016 11016 11015 11016 11015 11014 11014 11013 11011 11006 11006 11003 11002 10999 10998 10997 10995 10993 10990 10986 10982 10979 10975 10972
10971 10973 10976 10978 10980 10983 10985 10987 10988 10991 10993 10995 10997 11001 11002 11005 11006 11006 11007 11009 11010 11010 11010 11010 11011 11012 11010 11010 11009 11008 11004 11002 11000 10998 10995 10992 10992 10991 10991 10987 10984 10980 10975 10974 10972
10959 10961 10963 10965 10967 10970 10972 10974 10977 10979 10981 10983 10985 10989 10993 10996 10998 10998 10999 11001 11003 11003 11003 11004 11004 11004 11005 11004 11004 11003 10999 10999 10996 10993 10991 10988 10986 10984 10987 10985 10981 10977 10973 10972 10972
10946 10948 10950 10951 10953 10956 10958 10959 10961 10964 10967 10970 10972 10976 10981 10984 10987 10989 10991 10993 10994 10995 10996 10996 10996 10998 10998 10999 10998 10997 10994 10994 10994 10989 10987 10985 10981 10981 10982 10982 10979 10975 10970 10969 10968
10930 10932 10935 10936 10938 10939 10942 10945 10946 10948 10951 10954 10958 10962 10965 10970 10974 10977 10982 10983 10985 10986 10988 10990 10989 10990 10991 10992 10993 10991 10988 10988 10988 10987 10983 10982 10979 10977 10976 10976 10976 10973 10967 10966 10965
10910 10911 10914 10917 10919 10922 10924 10927 10928 10930 10935 10939 10942 10948 10950 10954 10961 10963 10969 10971 10974 10977 10978 10979 10981 10982 10982 10984 10986 10985 10983 10982 10982 10982 10978 10976 10973 10971 10969 10969 10969 10970 10965 10960 10961
10888 10891 10891 10895 10896 10900 10903 10905 10907 10908 10920 10923 10925 10933 10937 10941 10943 10948 10955 10957 10960 10965 10967 10969 10972 10972 10973 10976 10978 10977 10975 10975 10976 10975 10975 10971 10968 10965 10963 10961 10961 10961 10961 10957 10956
10872 10870 10871 10869 10871 10875 10875 10877 10883 10887 10899 10901 10906 10915 10919 10924 10929 10932 10937 10943 10947 10950 10954 10958 10961 10962 10966 10967 10969 10968 10968 10967 10968 10969 10968 10965 10963 10961 10958 10956 10953 10953 10951 10948 10946
10861 10857 10855 10852 10847 10847 10848 10851 10853 10858 10873 10876 10884 10894 10899 10907 10913 10918 10921 10925 10933 10937 10940 10944 10947 10951 10956 10958 10960 10959 10960 10960 10960 10961 10961 10959 10956 10955 10952 10950 10948 10947 10945 10942 10942
10849 10844 10840 10835 10832 10824 10824 10821 10823 10829 10837 10860 10856 10873 10873 10889 10898 10900 10906 10907 10914 10924 10926 10931 10934 10938 10942 10948 10949 10950 10950 10953 10951 10953 10953 10952 10948 10949 10947 10943 10943 10940 10938 10935 10934
10835 10828 10825 10817 10814 10806 10803 10797 10796 10798 10807 10829 10829 10838 10855 10861 10882 10878 10887 10890 10899 10903 10910 10919 10921 10925 10932 10935 10938 10939 10941 10943 10942 10943 10944 10943 10940 10933 10940 10936 10934 10932 10929 10926 10925
10820 10812 10806 10798 10792 10785 10780 10775 10771 10771 10779 10790 10795 10821 10820 10840 10847 10857 10867 10874 10883 10879 10893 10906 10908 10913 10919 10921 10924 10927 10932 10934 10933 10932 10934 10932 10934 10929 10921 10928 10925 10923 10918 10915 10915
10806 10796 10787 10779 10770 10763 10754 10747 10745 10746 10757 10759 10771 10783 10792 10807 10818 10826 10843 10851 10865 10864 10876 10885 10893 10899 10902 10909 10913 10916 10919 10923 10923 10923 10922 10918 10924 10922 10917 10915 10916 10912 10909 10904 10904
10789 10778 10765 10759 10750 10741 10732 10723 10723 10721 10719 10726 10737 10755 10770 10781 10791 10802 10816 10828 10848 10853 10859 10866 10877 10880 10887 10893 10897 10904 10907 10911 10912 10912 10911 10908 10912 10911 10913 10909 10908 10907 10902 10898 10895
10771 10761 10750 10740 10730 10720 10709 10704 10694 10693 10691 10692 10711 10731 10750 10756 10766 10781 10790 10810 10826 10830 10840 10846 10860 10859 10866 10877 10883 10891 10896 10897 10899 10900 10901 10895 10894 10901 10901 10901 10900 10897 10895 10887 10886
10754 10741 10730 10721 10709 10698 10690 10680 10675 10671 10678 10686 10694 10704 10718 10732 10743 10753 10773 10787 10803 10809 10821 10834 10836 10842 10848 10862 10869 10876 10878 10882 10887 10889 10890 10888 10888 10881 10886 10892 10890 10889 10886 10879 10876
10733 10723 10709 10700 10690 10680 10670 10662 10659 10658 10663 10663 10671 10682 10696 10707 10718 10737 10749 10764 10776 10790 10802 10815 10819 10828 10822 10849 10851 10859 10863 10871 10869 10878 10877 10879 10878 10868 10873 10877 10882 10879 10874 10870 10867
10717 10705 10691 10682 10673 10662 10653 10646 10643 10643 10644 10650 10657 10670 10679 10688 10709 10717 10732 10739 10759 10770 10786 10795 10800 10807 10804 10831 10834 10841 10849 10853 10854 10861 10863 10866 10871 10853 10855 10864 10869 10868 10865 10861 10857
10699 10689 10676 10665 10655 10645 10637 10632 10630 10630 10633 10638 10644 10652 10662 10676 10690 10699 10710 10712 10745 10751 10759 10770 10781 10792 10797 10807 10818 10827 10830 10835 10838 10845 10851 10855 10856 10838 10844 10850 10850 10855 10854 10851 10847
10682 10672 10661 10649 10639 10630 10624 10621 10620 10621 10624 10628 10633 10640 10650 10663 10675 10684 10697 10712 10722 10724 10748 10754 10762 10772 10783 10793 10791 10807 10809 10819 10825 10833 10837 10840 10836 10834 10837 10833 10835 10837 10842 10839 10836
10667 10657 10646 10635 10625 10618 10613 10612 10611 10614 10617 10622 10627 10633 10640 10650 10660 10672 10683 10692 10706 10715 10723 10732 10744 10755 10767 10770 10774 10794 10796 10800 10806 10816 10822 10821 10819 10838 10812 10815 10823 10823 10825 10826 10825
10653 10645 10634 10624 10616 10608 10604 10604 10605 10607 10611 10616 10620 10624 10631 10641 10651 10660 10668 10677 10691 10701 10707 10715 10728 10736 10752 10754 10763 10773 10777 10785 10791 10798 10806 10807 10802 10809 10812 10806 10809 10812 10811 10811 10812
10636 10630 10621 10612 10604 10599 10597 10597 10599 10602 10606 10609 10613 10617 10623 10630 10640 10649 10656 10669 10677 10693 10699 10708 10713 10728 10733 10741 10753 10757 10763 10768 10775 10781 10787 10782 10785 10798 10793 10790 10792 10797 10798 10798 10798